| time (UTC) | temp F | wind direction | speed MPH | gust MPH | rain 1hr in | rain 24hr in | rain mn in | humidity % | barometer mb |
| 20260506230353 | 50 | 3.0 | 0.0 | 0.00 | 0.00 | 0.00 | 82 | 1016.0 | |
| 20260506224850 | 52 | 3.0 | 0.0 | 0.00 | 0.00 | 0.00 | 82 | 1016.0 | |
| 20260506223353 | 52 | 3.0 | 0.0 | 0.00 | 0.00 | 0.00 | 82 | 1016.0 | |
| 20260506221853 | 52 | 3.0 | 0.0 | 0.00 | 0.00 | 0.00 | 82 | 1016.0 | |
| 20260506220353 | 0 | 0.0 | 0.0 | 0.00 | 0.00 | 0.00 | |||
| 20260506214906 | 54 | 3.0 | 0.0 | 0.00 | 0.00 | 0.00 | 77 | 1016.0 | |
| 20260506213353 | 54 | 3.0 | 0.0 | 0.00 | 0.00 | 0.00 | 77 | 1016.0 | |
| 20260506211847 | 54 | 3.0 | 0.0 | 0.00 | 0.00 | 0.00 | 77 | 1016.0 | |
| 20260506210353 | 54 | 3.0 | 0.0 | 0.00 | 0.00 | 0.00 | 77 | 1016.0 | |
| 20260506204854 | 52 | 260 | 5.0 | 0.0 | 0.00 | 0.00 | 0.00 | 77 | 1016.0 |
| 20260506203353 | 52 | 260 | 5.0 | 0.0 | 0.00 | 0.00 | 0.00 | 77 | 1016.0 |
| 20260506201847 | 52 | 260 | 5.0 | 0.0 | 0.00 | 0.00 | 0.00 | 77 | 1016.0 |
| 20260506200353 | 52 | 260 | 5.0 | 0.0 | 0.00 | 0.00 | 0.00 | 77 | 1016.0 |
| 20260506194910 | 59 | 160 | 7.0 | 0.0 | 0.00 | 0.00 | 0.00 | 63 | 1016.0 |
| 20260506193417 | 59 | 160 | 7.0 | 0.0 | 0.00 | 0.00 | 0.00 | 63 | 1016.0 |
| 20260506191854 | 59 | 160 | 7.0 | 0.0 | 0.00 | 0.00 | 0.00 | 63 | 1016.0 |
| 20260506190354 | 59 | 160 | 7.0 | 0.0 | 0.00 | 0.00 | 0.00 | 63 | 1016.0 |
| 20260506184856 | 63 | 150 | 9.0 | 0.0 | 0.00 | 0.00 | 0.00 | 56 | 1015.0 |
| 20260506183353 | 63 | 150 | 9.0 | 0.0 | 0.00 | 0.00 | 0.00 | 56 | 1015.0 |
| 20260506181854 | 63 | 150 | 9.0 | 0.0 | 0.00 | 0.00 | 0.00 | 56 | 1015.0 |
| 20260506180354 | 0 | 0.0 | 0.0 | 0.00 | 0.00 | 0.00 | |||
| 20260506174854 | 68 | 150 | 11.0 | 0.0 | 0.00 | 0.00 | 0.00 | 46 | 1014.0 |
| 20260506173353 | 68 | 150 | 11.0 | 0.0 | 0.00 | 0.00 | 0.00 | 46 | 1014.0 |
| 20260506171854 | 68 | 150 | 11.0 | 0.0 | 0.00 | 0.00 | 0.00 | 46 | 1014.0 |
| 20260506170353 | 68 | 150 | 11.0 | 0.0 | 0.00 | 0.00 | 0.00 | 46 | 1014.0 |
| 20260506164853 | 72 | 170 | 9.0 | 0.0 | 0.00 | 0.00 | 0.00 | 41 | 1014.0 |
| 20260506163353 | 72 | 170 | 9.0 | 0.0 | 0.00 | 0.00 | 0.00 | 41 | 1014.0 |
| 20260506161854 | 72 | 170 | 9.0 | 0.0 | 0.00 | 0.00 | 0.00 | 41 | 1014.0 |
| 20260506160353 | 72 | 170 | 9.0 | 0.0 | 0.00 | 0.00 | 0.00 | 41 | 1014.0 |
| 20260506154854 | 72 | 170 | 14.0 | 0.0 | 0.00 | 0.00 | 0.00 | 38 | 1015.0 |
| 20260506153353 | 72 | 170 | 14.0 | 0.0 | 0.00 | 0.00 | 0.00 | 38 | 1015.0 |
| 20260506151853 | 72 | 170 | 14.0 | 0.0 | 0.00 | 0.00 | 0.00 | 38 | 1015.0 |
| 20260506150359 | 72 | 170 | 14.0 | 0.0 | 0.00 | 0.00 | 0.00 | 38 | 1015.0 |
| 20260506144853 | 73 | 200 | 11.0 | 0.0 | 0.00 | 0.00 | 0.00 | 38 | 1015.0 |
| 20260506143405 | 73 | 200 | 11.0 | 0.0 | 0.00 | 0.00 | 0.00 | 38 | 1015.0 |
| 20260506141853 | 73 | 200 | 11.0 | 0.0 | 0.00 | 0.00 | 0.00 | 38 | 1015.0 |
| 20260506140515 | 0 | 0.0 | 0.0 | 0.00 | 0.00 | 0.00 | |||
| 20260506134918 | 73 | 150 | 14.0 | 0.0 | 0.00 | 0.00 | 0.00 | 38 | 1015.0 |
| 20260506133353 | 73 | 150 | 14.0 | 0.0 | 0.00 | 0.00 | 0.00 | 38 | 1015.0 |
| 20260506131850 | 73 | 150 | 14.0 | 0.0 | 0.00 | 0.00 | 0.00 | 38 | 1015.0 |
| 20260506130402 | 73 | 150 | 14.0 | 0.0 | 0.00 | 0.00 | 0.00 | 38 | 1015.0 |
| 20260506124854 | 73 | 170 | 11.0 | 0.0 | 0.00 | 0.00 | 0.00 | 38 | 1015.0 |
| 20260506123353 | 73 | 170 | 11.0 | 0.0 | 0.00 | 0.00 | 0.00 | 38 | 1015.0 |
| 20260506121854 | 73 | 170 | 11.0 | 0.0 | 0.00 | 0.00 | 0.00 | 38 | 1015.0 |
| 20260506120353 | 73 | 170 | 11.0 | 0.0 | 0.00 | 0.00 | 0.00 | 38 | 1015.0 |
| 20260506114853 | 73 | 170 | 11.0 | 0.0 | 0.00 | 0.00 | 0.00 | 41 | 1015.0 |
| 20260506113354 | 73 | 170 | 11.0 | 0.0 | 0.00 | 0.00 | 0.00 | 41 | 1015.0 |
| 20260506111853 | 73 | 170 | 11.0 | 0.0 | 0.00 | 0.00 | 0.00 | 41 | 1015.0 |
| 20260506110353 | 73 | 170 | 11.0 | 0.0 | 0.00 | 0.00 | 0.00 | 41 | 1015.0 |
| 20260506104853 | 72 | 190 | 11.0 | 0.0 | 0.00 | 0.00 | 0.00 | 38 | 1016.0 |
| 20260506103354 | 72 | 190 | 11.0 | 0.0 | 0.00 | 0.00 | 0.00 | 38 | 1016.0 |
| 20260506101854 | 72 | 190 | 11.0 | 0.0 | 0.00 | 0.00 | 0.00 | 38 | 1016.0 |
| 20260506100354 | 72 | 190 | 11.0 | 0.0 | 0.00 | 0.00 | 0.00 | 38 | 1016.0 |
| 20260506094854 | 70 | 170 | 9.0 | 0.0 | 0.00 | 0.00 | 0.00 | 43 | 1016.0 |
| 20260506093353 | 70 | 170 | 9.0 | 0.0 | 0.00 | 0.00 | 0.00 | 43 | 1016.0 |
| 20260506091853 | 70 | 170 | 9.0 | 0.0 | 0.00 | 0.00 | 0.00 | 43 | 1016.0 |
| 20260506090353 | 70 | 170 | 9.0 | 0.0 | 0.00 | 0.00 | 0.00 | 43 | 1016.0 |
| 20260506084854 | 68 | 190 | 9.0 | 0.0 | 0.00 | 0.00 | 0.00 | 40 | 1016.0 |
| 20260506083353 | 68 | 190 | 9.0 | 0.0 | 0.00 | 0.00 | 0.00 | 40 | 1016.0 |
| 20260506081850 | 68 | 190 | 9.0 | 0.0 | 0.00 | 0.00 | 0.00 | 40 | 1016.0 |
| 20260506080354 | 68 | 190 | 9.0 | 0.0 | 0.00 | 0.00 | 0.00 | 40 | 1016.0 |
| 20260506073354 | 63 | 210 | 9.0 | 0.0 | 0.00 | 0.00 | 0.00 | 52 | 1016.0 |
| 20260506071853 | 63 | 210 | 9.0 | 0.0 | 0.00 | 0.00 | 0.00 | 52 | 1016.0 |
| 20260506070353 | 63 | 210 | 9.0 | 0.0 | 0.00 | 0.00 | 0.00 | 52 | 1016.0 |
| 20260506061854 | 61 | 210 | 9.0 | 0.0 | 0.00 | 0.00 | 0.00 | 52 | 1015.0 |
| 20260506060355 | 61 | 210 | 9.0 | 0.0 | 0.00 | 0.00 | 0.00 | 52 | 1015.0 |
| 20260506050407 | 57 | 250 | 9.0 | 0.0 | 0.00 | 0.00 | 0.00 | 59 | 1015.0 |
| 20260506044909 | 50 | 260 | 5.0 | 0.0 | 0.00 | 0.00 | 0.00 | 71 | 1015.0 |
| 20260506043357 | 50 | 260 | 5.0 | 0.0 | 0.00 | 0.00 | 0.00 | 71 | 1015.0 |
| 20260506041854 | 50 | 260 | 5.0 | 0.0 | 0.00 | 0.00 | 0.00 | 71 | 1015.0 |
| 20260506040353 | 50 | 260 | 5.0 | 0.0 | 0.00 | 0.00 | 0.00 | 71 | 1015.0 |
| 20260506034854 | 46 | 3.0 | 0.0 | 0.00 | 0.00 | 0.00 | 76 | 1015.0 | |
| 20260506033353 | 46 | 3.0 | 0.0 | 0.00 | 0.00 | 0.00 | 76 | 1015.0 | |
| 20260506031853 | 46 | 3.0 | 0.0 | 0.00 | 0.00 | 0.00 | 76 | 1015.0 | |
| 20260506030353 | 46 | 3.0 | 0.0 | 0.00 | 0.00 | 0.00 | 76 | 1015.0 | |
| 20260506024853 | 46 | 3.0 | 0.0 | 0.00 | 0.00 | 0.00 | 87 | 1016.0 | |
| 20260506023353 | 46 | 3.0 | 0.0 | 0.00 | 0.00 | 0.00 | 87 | 1016.0 | |
| 20260506021851 | 0 | 0.0 | 0.0 | 0.00 | 0.00 | 0.00 | |||
| 20260506020353 | 0 | 0.0 | 0.0 | 0.00 | 0.00 | 0.00 | |||
| 20260506014853 | 48 | 3.0 | 0.0 | 0.00 | 0.00 | 0.00 | 87 | 1016.0 | |
| 20260506013353 | 48 | 3.0 | 0.0 | 0.00 | 0.00 | 0.00 | 87 | 1016.0 | |
| 20260506011854 | 48 | 3.0 | 0.0 | 0.00 | 0.00 | 0.00 | 87 | 1016.0 | |
| 20260506010353 | 48 | 3.0 | 0.0 | 0.00 | 0.00 | 0.00 | 87 | 1016.0 | |
| 20260506004850 | 48 | 3.0 | 0.0 | 0.00 | 0.00 | 0.00 | 87 | 1016.0 | |
| 20260506003516 | 0 | 0.0 | 0.0 | 0.00 | 0.00 | 0.00 | |||
| 20260506001854 | 50 | 3.0 | 0.0 | 0.00 | 0.00 | 0.00 | 88 | 1016.0 | |
| 20260506000354 | 50 | 3.0 | 0.0 | 0.00 | 0.00 | 0.00 | 88 | 1016.0 | |
| 20260505234854 | 0 | 0.0 | 0.0 | 0.00 | 0.00 | 0.00 | |||
| 20260505233353 | 0 | 0.0 | 0.0 | 0.00 | 0.00 | 0.00 | |||
| 20260505231853 | 0 | 0.0 | 0.0 | 0.00 | 0.00 | 0.00 |